Location: Unspecified
(33.6682°S, 0.0000°E)
Time: 18:51:40
(UTC+00:00)

Vanguard 1 - All Passes

Search period start: 16 June 2019 00:00
Search period end: 26 June 2019 00:00
Orbit: 654 x 3829 km, 34.2° (Epoch: 15 June)

Date Brightness Start Highest point End Pass type
(mag) Time Alt. Az. Time Alt. Az. Time Alt. Az.
16 Jun - 00:56:23 10° W 01:13:32 27° NW 01:28:44 10° N visible
16 Jun - 13:29:14 10° NNE 13:33:42 16° NE 13:39:35 10° E daylight
16 Jun - 15:44:20 10° NW 15:53:10 61° NNE 16:09:47 10° ESE daylight
16 Jun - 18:04:06 10° W 18:16:49 89° S 18:39:05 10° E visible
16 Jun - 20:25:57 10° W 20:43:31 83° NNW 21:07:32 10° ENE visible
16 Jun - 22:49:53 10° WSW 23:10:13 52° NW 23:31:10 10° NE visible
17 Jun - 01:20:29 10° W 01:34:17 19° NW 01:46:48 10° NNW visible
17 Jun - 13:48:10 10° N 13:53:58 24° NE 14:02:47 10° E daylight
17 Jun - 16:05:01 10° WNW 16:14:12 73° NNE 16:31:46 10° ESE daylight
17 Jun - 18:25:16 10° W 18:38:30 88° S 19:01:12 10° E visible
17 Jun - 20:47:16 10° WSW 21:05:13 76° NNW 21:29:00 10° ENE visible
17 Jun - 23:11:47 10° WSW 23:31:24 43° NW 23:51:19 10° NNE visible
18 Jun - 01:47:22 10° WNW 01:55:03 13° NW 02:02:19 10° NNW visible
18 Jun - 14:07:55 10° NNW 14:14:23 34° NE 14:25:11 10° E daylight
18 Jun - 16:25:53 10° WNW 16:35:26 82° NNE 16:53:46 10° E daylight
18 Jun - 18:46:27 10° W 19:00:13 89° S 19:23:15 10° E visible
18 Jun - 21:08:37 10° WSW 21:26:50 68° NNW 21:50:12 10° NE visible
18 Jun - 23:34:02 10° W 23:52:29 35° NW 00:10:59 10° NNE visible
19 Jun - 14:28:06 10° NW 14:34:58 46° NE 14:47:16 10° ESE daylight
19 Jun - 16:46:51 10° WNW 16:56:48 88° N 17:15:49 10° E daylight
19 Jun - 19:07:38 10° W 19:21:56 87° NNW 19:45:12 10° ENE visible
19 Jun - 21:30:02 10° WSW 21:48:19 60° NNW 22:11:06 10° NE visible
19 Jun - 23:56:54 10° W 00:13:29 27° NW 00:30:01 10° N visible
20 Jun - 12:34:16 10° NNE 12:36:47 12° NE 12:39:44 10° ENE daylight
20 Jun - 14:48:35 10° NW 14:55:45 59° NNE 15:09:10 10° ESE daylight
20 Jun - 17:07:54 10° W 17:18:17 88° S 17:37:55 10° E visible
20 Jun - 19:28:50 10° W 19:43:35 82° NNW 20:06:59 10° ENE visible
20 Jun - 21:51:36 10° WSW 22:09:43 51° NW 22:31:38 10° NE visible
21 Jun - 00:20:52 10° W 00:34:29 20° NW 00:48:00 10° N visible
21 Jun - 12:52:41 10° N 12:57:06 20° NE 13:03:15 10° E daylight
21 Jun - 15:09:16 10° WNW 15:16:44 72° NNE 15:31:03 10° ESE daylight
21 Jun - 17:28:59 10° W 17:39:49 88° S 18:00:02 10° E visible
21 Jun - 19:50:03 10° WSW 20:05:11 74° NNW 20:28:32 10° ENE visible
21 Jun - 22:13:24 10° W 22:31:02 42° NW 22:51:46 10° NNE visible
22 Jun - 00:47:32 10° WNW 00:55:31 13° NW 01:03:27 10° NNW visible
22 Jun - 13:12:21 10° NNW 13:17:32 30° NE 13:25:36 10° E daylight
22 Jun - 15:30:06 10° WNW 15:37:52 82° NNE 15:52:57 10° E daylight
22 Jun - 17:50:04 10° W 18:01:21 90° S 18:22:07 10° E visible
22 Jun - 20:11:17 10° WSW 20:26:44 66° NNW 20:49:47 10° NE visible
22 Jun - 22:35:34 10° W 22:52:16 34° NW 23:11:25 10° NNE visible
23 Jun - 13:32:31 10° NW 13:38:07 42° NE 13:47:33 10° E daylight
23 Jun - 15:51:03 10° W 15:59:08 89° N 16:14:54 10° E daylight
23 Jun - 18:11:10 10° W 18:22:54 86° NNW 18:44:06 10° ENE visible
23 Jun - 20:32:37 10° WSW 20:48:13 57° NNW 21:10:44 10° NE visible
23 Jun - 22:58:21 10° W 23:13:29 26° NW 23:30:22 10° N visible
24 Jun - 13:52:59 10° NW 13:58:52 56° NNE 14:09:20 10° ESE daylight
24 Jun - 16:12:02 10° W 16:20:28 88° S 16:36:55 10° E daylight
24 Jun - 18:32:16 10° W 18:44:25 80° NNW 19:05:55 10° ENE visible
24 Jun - 20:54:06 10° W 21:09:39 48° NNW 21:31:17 10° NNE visible
24 Jun - 23:22:17 10° W 23:34:43 19° NW 23:48:10 10° N visible
25 Jun - 11:57:14 10° N 12:00:31 17° NE 12:04:38 10° E daylight
25 Jun - 14:13:41 10° WNW 14:19:49 70° NNE 14:31:04 10° ESE daylight
25 Jun - 16:33:04 10° W 16:41:52 87° S 16:58:58 10° E daylight
25 Jun - 18:53:23 10° WSW 19:05:54 72° NNW 19:27:30 10° ENE visible
25 Jun - 21:15:49 10° W 21:31:03 39° NW 21:51:25 10° NNE visible
